,,,PA_Meas_PMT16A,,PR_Meas_QMR101_102,,RH_Meas_QMH101,,SR_Meas_QMS101,,TA_Meas_QMH101,,GenWind,,GenWind,
date,time,status,PA,status,PR,status,RH,status,SR,status,TA,status,DirAvg,status,SpdAvg,
2011-01-18, 00:00:04,VALID,1004.41,VALID,0,INVALID,163.601,VALID,0,VALID,25.1267,VALID,203,VALID,0,
2011-01-18, 00:01:04,VALID,1004.38,VALID,0,INVALID,163.609,VALID,0,VALID,25.1248,VALID,203,VALID,0,
2011-01-18, 00:02:04,VALID,1004.38,VALID,0,INVALID,163.624,VALID,0,VALID,25.1461,VALID,203,VALID,0.202344,
2011-01-18, 00:03:04,VALID,1004.31,VALID,0,INVALID,163.586,VALID,0,VALID,25.1656,VALID,203,VALID,0.0945313,
2011-01-18, 00:04:04,VALID,1004.3,VALID,0,INVALID,163.594,VALID,0,VALID,25.1442,VALID,203,VALID,0.145313,
2011-01-18, 00:05:04,VALID,1004.28,VALID,0,INVALID,163.632,VALID,0,VALID,25.1832,VALID,190,VALID,0.465625,
2011-01-18, 00:06:04,VALID,1004.23,VALID,0,INVALID,163.617,VALID,0,VALID,25.1637,VALID,149,VALID,0.549609,
2011-01-18, 00:07:04,VALID,1004.2,VALID,0,INVALID,163.632,VALID,0,VALID,25.1442,VALID,149,VALID,0.283594,
2011-01-18, 00:08:04,VALID,1004.16,VALID,0,INVALID,163.632,VALID,0,VALID,25.1851,VALID,149,VALID,0.251953,
2011-01-18, 00:09:04,VALID,1004.14,VALID,0,INVALID,163.609,VALID,0,VALID,25.1832,VALID,52,VALID,0.634766,
2011-01-18, 00:10:04,VALID,1004.09,VALID,0,INVALID,163.609,VALID,0,VALID,25.1423,VALID,52,VALID,0.606641,
2011-01-18, 00:11:04,VALID,1004.06,VALID,0,INVALID,163.617,VALID,0,VALID,25.1229,VALID,57,VALID,0.542969,
2011-01-18, 00:12:04,VALID,1004.04,VALID,0,INVALID,163.639,VALID,0,VALID,25.1034,VALID,57,VALID,0.219141,
2011-01-18, 00:13:04,VALID,1004,VALID,0,INVALID,163.624,VALID,0,VALID,25.0644,VALID,57,VALID,0.0332031,
2011-01-18, 00:14:04,VALID,1003.97,VALID,0,INVALID,163.617,VALID,0,VALID,25.0858,VALID,60,VALID,0.456641,
2011-01-18, 00:15:04,VALID,1003.92,VALID,0,INVALID,163.601,VALID,0,VALID,25.0644,VALID,70,VALID,0.364844,
2011-01-18, 00:16:04,VALID,1003.89,VALID,0,INVALID,163.617,VALID,0.100563,VALID,25.0663,VALID,70,VALID,0.375781,
2011-01-18, 00:17:04,VALID,1003.87,VALID,0,INVALID,163.624,VALID,0.100563,VALID,25.045,VALID,70,VALID,0.152734,
2011-01-18, 00:18:04,VALID,1003.85,VALID,0,INVALID,163.632,VALID,0,VALID,25.0255,VALID,70,VALID,0.509375,
2011-01-18, 00:19:04,VALID,1003.82,VALID,0,INVALID,163.609,VALID,0,VALID,25.006,VALID,51,VALID,0.667188,
2011-01-18, 00:20:04,VALID,1003.76,VALID,0,INVALID,163.655,VALID,0,VALID,24.9866,VALID,50,VALID,0.491016,
2011-01-18, 00:21:04,VALID,1003.74,VALID,0,INVALID,163.624,VALID,0,VALID,24.9671,VALID,50,VALID,0.497656,
2011-01-18, 00:22:04,VALID,1003.71,VALID,0,INVALID,163.647,VALID,0,VALID,24.9885,VALID,50,VALID,0.358984,
2011-01-18, 00:23:04,VALID,1003.69,VALID,0,INVALID,163.639,VALID,0,VALID,24.9671,VALID,50,VALID,0.272656,
2011-01-18, 00:24:04,VALID,1003.67,VALID,0,INVALID,163.624,VALID,0,VALID,24.9671,VALID,50,VALID,0.125391,
2011-01-18, 00:25:04,VALID,1003.64,VALID,0,INVALID,163.639,VALID,0,VALID,24.9476,VALID,50,VALID,0.0757812,
2011-01-18, 00:26:04,VALID,1003.66,VALID,0,INVALID,163.632,VALID,0,VALID,24.9495,VALID,50,VALID,0.153516,
2011-01-18, 00:27:04,VALID,1003.63,VALID,0,INVALID,163.624,VALID,0,VALID,24.9282,VALID,50,VALID,0,
2011-01-18, 00:28:04,VALID,1003.65,VALID,0,INVALID,163.647,VALID,0,VALID,24.9087,VALID,50,VALID,0,
2011-01-18, 00:29:04,VALID,1003.67,VALID,0,INVALID,163.639,VALID,0,VALID,24.9087,VALID,50,VALID,0,
2011-01-18, 00:30:04,VALID,1003.66,VALID,0,INVALID,163.624,VALID,0,VALID,24.9106,VALID,50,VALID,0.301953,
2011-01-18, 00:31:04,VALID,1003.64,VALID,0,INVALID,163.624,VALID,0,VALID,24.8697,VALID,50,VALID,0.335938,
2011-01-18, 00:32:04,VALID,1003.67,VALID,0,INVALID,163.662,VALID,0,VALID,24.8697,VALID,50,VALID,0.249609,
2011-01-18, 00:33:04,VALID,1003.63,VALID,0,INVALID,163.647,VALID,0,VALID,24.8697,VALID,50,VALID,0.0375,
2011-01-18, 00:34:04,VALID,1003.65,VALID,0,INVALID,163.624,VALID,0,VALID,24.8911,VALID,50,VALID,0,
2011-01-18, 00:35:04,VALID,1003.65,VALID,0,INVALID,163.624,VALID,0,VALID,24.8697,VALID,50,VALID,0,
2011-01-18, 00:36:04,VALID,1003.63,VALID,0,INVALID,163.609,VALID,0,VALID,24.8911,VALID,50,VALID,0,
2011-01-18, 00:37:04,VALID,1003.61,VALID,0,INVALID,163.655,VALID,0,VALID,24.8503,VALID,50,VALID,0,
2011-01-18, 00:38:04,VALID,1003.63,VALID,0,INVALID,163.662,VALID,0,VALID,24.8503,VALID,50,VALID,0,
2011-01-18, 00:39:04,VALID,1003.63,VALID,0,INVALID,163.655,VALID,0,VALID,24.8716,VALID,50,VALID,0,
2011-01-18, 00:40:04,VALID,1003.62,VALID,0,INVALID,163.639,VALID,0,VALID,24.8911,VALID,50,VALID,0.00117188,
2011-01-18, 00:41:04,VALID,1003.58,VALID,0,INVALID,163.655,VALID,0,VALID,24.8911,VALID,50,VALID,0.201172,
2011-01-18, 00:42:04,VALID,1003.59,VALID,0,INVALID,163.632,VALID,0,VALID,24.9106,VALID,50,VALID,0.369531,
2011-01-18, 00:43:04,VALID,1003.55,VALID,0,INVALID,163.639,VALID,0,VALID,24.8716,VALID,37,VALID,0.653516,
2011-01-18, 00:44:04,VALID,1003.52,VALID,0,INVALID,163.662,VALID,0,VALID,24.8697,VALID,37,VALID,0.485156,
2011-01-18, 00:45:04,VALID,1003.5,VALID,0,INVALID,163.624,VALID,0,VALID,24.8911,VALID,27,VALID,0.594141,
2011-01-18, 00:46:04,VALID,1003.5,VALID,0,INVALID,163.647,VALID,0,VALID,24.8716,VALID,11,VALID,0.532031,
2011-01-18, 00:47:04,VALID,1003.48,VALID,0,INVALID,163.632,VALID,0,VALID,24.8327,VALID,11,VALID,0.381641,
2011-01-18, 00:48:04,VALID,1003.47,VALID,0,INVALID,163.624,VALID,0,VALID,24.8327,VALID,11,VALID,0.455469,
2011-01-18, 00:49:04,VALID,1003.43,VALID,0,INVALID,163.647,VALID,0,VALID,24.8132,VALID,11,VALID,0.487109,
2011-01-18, 00:50:04,VALID,1003.42,VALID,0,INVALID,163.632,VALID,0,VALID,24.751,VALID,11,VALID,0.383203,
2011-01-18, 00:51:04,VALID,1003.39,VALID,0,INVALID,163.655,VALID,0,VALID,24.7937,VALID,11,VALID,0.345313,
2011-01-18, 00:52:04,VALID,1003.41,VALID,0,INVALID,163.647,VALID,0,VALID,24.7724,VALID,11,VALID,0.380078,
2011-01-18, 00:53:04,VALID,1003.38,VALID,0,INVALID,163.639,VALID,0,VALID,24.7724,VALID,11,VALID,0.264844,
2011-01-18, 00:54:04,VALID,1003.39,VALID,0,INVALID,163.647,VALID,0,VALID,24.7937,VALID,11,VALID,0.176563,
2011-01-18, 00:55:04,VALID,1003.36,VALID,0,INVALID,163.632,VALID,0,VALID,24.7724,VALID,11,VALID,0.266406,
2011-01-18, 00:56:04,VALID,1003.34,VALID,0,INVALID,163.647,VALID,0,VALID,24.7529,VALID,11,VALID,0.253516,
2011-01-18, 00:57:04,VALID,1003.37,VALID,0,INVALID,163.67,VALID,0,VALID,24.7724,VALID,11,VALID,0.00234375,
2011-01-18, 00:58:04,VALID,1003.31,VALID,0,INVALID,163.655,VALID,0,VALID,24.7919,VALID,11,VALID,0.365234,
2011-01-18, 00:59:04,VALID,1003.31,VALID,0,INVALID,163.67,VALID,0,VALID,24.7724,VALID,11,VALID,0.300391,
2011-01-18, 01:00:04,VALID,1003.28,VALID,0,INVALID,163.639,VALID,0,VALID,24.7919,VALID,11,VALID,0.271484,
2011-01-18, 01:01:04,VALID,1003.22,VALID,0,INVALID,163.647,VALID,0,VALID,24.8132,VALID,11,VALID,0.340625,
2011-01-18, 01:02:04,VALID,1003.16,VALID,0,INVALID,163.639,VALID,0,VALID,24.8113,VALID,11,VALID,0.380859,
2011-01-18, 01:03:04,VALID,1003.15,VALID,0,INVALID,163.639,VALID,0,VALID,24.8113,VALID,11,VALID,0.372656,
2011-01-18, 01:04:04,VALID,1003.12,VALID,0,INVALID,163.662,VALID,0,VALID,24.7919,VALID,11,VALID,0.1875,
2011-01-18, 01:05:04,VALID,1003.09,VALID,0,INVALID,163.647,VALID,0,VALID,24.8327,VALID,11,VALID,0,
2011-01-18, 01:06:04,VALID,1003.09,VALID,0,INVALID,163.639,VALID,0,VALID,24.8327,VALID,28,VALID,0.314063,
2011-01-18, 01:07:04,VALID,1003.1,VALID,0,INVALID,163.617,VALID,0,VALID,24.7919,VALID,349,VALID,0.714844,
2011-01-18, 01:08:04,VALID,1003.05,VALID,0,INVALID,163.639,VALID,0,VALID,24.8113,VALID,290,VALID,0.613672,
2011-01-18, 01:09:04,VALID,1003.04,VALID,0,INVALID,163.624,VALID,0,VALID,24.8716,VALID,41,VALID,0.644141,
2011-01-18, 01:10:04,VALID,1003.01,VALID,0,INVALID,163.647,VALID,0,VALID,24.969,VALID,37,VALID,0.766016,
2011-01-18, 01:11:04,VALID,1002.99,VALID,0,INVALID,163.632,VALID,0,VALID,25.0663,VALID,345,VALID,0.854297,
2011-01-18, 01:12:04,VALID,1002.99,VALID,0,INVALID,163.624,VALID,0,VALID,25.1053,VALID,339,VALID,0.417969,
2011-01-18, 01:13:04,VALID,1002.99,VALID,0,INVALID,163.617,VALID,0,VALID,25.1229,VALID,356,VALID,0.661719,
2011-01-18, 01:14:04,VALID,1002.97,VALID,0,INVALID,163.617,VALID,0,VALID,25.1832,VALID,359,VALID,1.53242,
2011-01-18, 01:15:04,VALID,1002.99,VALID,0,INVALID,163.601,VALID,0,VALID,25.2202,VALID,5,VALID,1.59023,
2011-01-18, 01:16:04,VALID,1002.96,VALID,0,INVALID,119.812,VALID,0.100563,VALID,25.3584,VALID,356,VALID,1.32578,
2011-01-18, 01:17:04,VALID,1002.94,VALID,0,INVALID,113.205,VALID,0,VALID,25.4753,VALID,6,VALID,1.11094,
2011-01-18, 01:18:04,VALID,1002.95,VALID,0,INVALID,110.756,VALID,0,VALID,25.4948,VALID,337,VALID,0.344531,
2011-01-18, 01:19:04,VALID,1002.96,VALID,0,INVALID,109.207,VALID,0,VALID,25.4753,VALID,57,VALID,0.254687,
2011-01-18, 01:20:04,VALID,1002.94,VALID,0,VALID,104,VALID,0,VALID,25.4948,VALID,355,VALID,0.458984,
2011-01-18, 01:21:04,VALID,1002.96,VALID,0,VALID,104,VALID,0,VALID,25.4539,VALID,358,VALID,0.135937,
2011-01-18, 01:22:04,VALID,1003,VALID,0,VALID,104,VALID,0.100563,VALID,25.4558,VALID,358,VALID,0.0316406,
2011-01-18, 01:23:04,VALID,1003.03,VALID,0,VALID,104,VALID,0,VALID,25.4344,VALID,239,VALID,0.436719,
2011-01-18, 01:24:04,VALID,1003.05,VALID,0,VALID,104,VALID,0,VALID,25.4558,VALID,238,VALID,0.223438,
2011-01-18, 01:25:04,VALID,1003.04,VALID,0,VALID,104,VALID,0,VALID,25.4539,VALID,238,VALID,0.118359,
2011-01-18, 01:26:04,VALID,1003.02,VALID,0,VALID,104,VALID,0,VALID,25.4558,VALID,21,VALID,0.58125,
2011-01-18, 01:27:04,VALID,1002.98,VALID,0,VALID,104,VALID,0,VALID,25.4149,VALID,261,VALID,1.12578,
2011-01-18, 01:28:04,VALID,1002.99,VALID,0,VALID,104,VALID,0,VALID,25.376,VALID,17,VALID,0.466016,
2011-01-18, 01:29:04,VALID,1002.98,VALID,0,VALID,104,VALID,0,VALID,25.337,VALID,28,VALID,0.782812,
2011-01-18, 01:30:04,VALID,1002.99,VALID,0,VALID,104,VALID,0,VALID,25.2767,VALID,10,VALID,0.694922,
2011-01-18, 01:31:04,VALID,1002.99,VALID,0,VALID,104,VALID,0,VALID,25.2592,VALID,3,VALID,1.20898,
2011-01-18, 01:32:04,VALID,1003,VALID,0,VALID,104,VALID,0,VALID,25.2611,VALID,7,VALID,1.22187,
2011-01-18, 01:33:04,VALID,1003.02,VALID,0,VALID,104,VALID,0,VALID,25.2611,VALID,8,VALID,0.987109,
2011-01-18, 01:34:04,VALID,1003,VALID,0,VALID,104,VALID,0,VALID,25.263,VALID,341,VALID,1.24141,
2011-01-18, 01:35:04,VALID,1003.02,VALID,0,VALID,104,VALID,0,VALID,25.2007,VALID,346,VALID,1.26719,
2011-01-18, 01:36:04,VALID,1003,VALID,0,VALID,104,VALID,0,VALID,25.1618,VALID,8,VALID,2.05859,
2011-01-18, 01:37:05,VALID,1003,VALID,0,VALID,104,VALID,0,VALID,25.1442,VALID,359,VALID,1.78594,
2011-01-18, 01:38:05,VALID,1002.98,VALID,0,VALID,104,VALID,0,VALID,25.0625,VALID,351,VALID,1.84414,
2011-01-18, 01:39:05,VALID,1003.01,VALID,0,VALID,104,VALID,0.100563,VALID,25.0663,VALID,359,VALID,1.31641,
2011-01-18, 01:40:05,VALID,1003.05,VALID,0,VALID,104,VALID,0,VALID,25.006,VALID,1,VALID,1.73086,
2011-01-18, 01:41:05,VALID,1003.03,VALID,0,INVALID,110.069,VALID,0,VALID,25.0079,VALID,330,VALID,1.08281,
2011-01-18, 01:42:05,VALID,1003.1,VALID,0,INVALID,112.785,VALID,0,VALID,24.9866,VALID,1,VALID,0.446875,
2011-01-18, 01:43:05,VALID,1003.15,VALID,0,INVALID,113.533,VALID,0.100563,VALID,24.9671,VALID,247,VALID,0.582812,
2011-01-18, 01:44:05,VALID,1003.2,VALID,0,INVALID,112.747,VALID,0,VALID,24.969,VALID,279,VALID,1.54219,
2011-01-18, 01:45:05,VALID,1003.25,VALID,0,INVALID,111.237,VALID,0,VALID,24.9866,VALID,296,VALID,1.53984,
2011-01-18, 01:46:05,VALID,1003.27,VALID,0,INVALID,113.922,VALID,0,VALID,25.0274,VALID,258,VALID,0.516406,
2011-01-18, 01:47:05,VALID,1003.27,VALID,0,INVALID,124.61,VALID,0,VALID,25.0255,VALID,272,VALID,0.767187,
2011-01-18, 01:48:05,VALID,1003.28,VALID,0,INVALID,148.756,VALID,0.100563,VALID,25.0041,VALID,247,VALID,0.455469,
2011-01-18, 01:49:05,VALID,1003.28,VALID,0,INVALID,163.594,VALID,0,VALID,25.0644,VALID,266,VALID,0.182812,
2011-01-18, 01:50:05,VALID,1003.29,VALID,0,INVALID,163.617,VALID,0,VALID,25.0858,VALID,238,VALID,0.505859,
2011-01-18, 01:51:05,VALID,1003.26,VALID,0,INVALID,124.358,VALID,0,VALID,25.0469,VALID,248,VALID,1.07266,
2011-01-18, 01:52:05,VALID,1003.22,VALID,0,VALID,104,VALID,0,VALID,24.9671,VALID,298,VALID,0.759766,
2011-01-18, 01:53:05,VALID,1003.26,VALID,0,VALID,104,VALID,0,VALID,24.9866,VALID,236,VALID,0.183984,
2011-01-18, 01:54:05,VALID,1003.23,VALID,0,VALID,104,VALID,0.100563,VALID,25.0274,VALID,240,VALID,0.425391,
2011-01-18, 01:55:05,VALID,1003.27,VALID,0,VALID,103.12,VALID,0,VALID,25.0274,VALID,245,VALID,0.178125,
2011-01-18, 01:56:05,VALID,1003.29,VALID,0,VALID,102.677,VALID,0,VALID,25.006,VALID,245,VALID,0.194531,
2011-01-18, 01:57:05,VALID,1003.32,VALID,0,VALID,103.623,VALID,0,VALID,25.0274,VALID,246,VALID,0.275391,
2011-01-18, 01:58:05,VALID,1003.32,VALID,0,VALID,103.806,VALID,0,VALID,25.0469,VALID,260,VALID,0.367188,
2011-01-18, 01:59:05,VALID,1003.35,VALID,0,VALID,103.943,VALID,0.100563,VALID,25.0255,VALID,287,VALID,0.485938,
2011-01-18, 02:00:05,VALID,1003.35,VALID,0,VALID,102.807,VALID,0,VALID,25.006,VALID,292,VALID,0.730859,
2011-01-18, 02:01:05,VALID,1003.38,VALID,0,VALID,101.189,VALID,0,VALID,24.969,VALID,220,VALID,1.34219,
2011-01-18, 02:02:05,VALID,1003.42,VALID,0,VALID,101.983,VALID,0.100563,VALID,24.8716,VALID,263,VALID,1.00469,
2011-01-18, 02:03:05,VALID,1003.39,VALID,0,VALID,102.334,VALID,0,VALID,24.7159,VALID,300,VALID,1.12109,
2011-01-18, 02:04:05,VALID,1003.42,VALID,0,VALID,103.181,VALID,0,VALID,24.4609,VALID,246,VALID,1.16992,
2011-01-18, 02:05:05,VALID,1003.35,VALID,0,VALID,104,VALID,0,VALID,24.2273,VALID,239,VALID,1.62031,
2011-01-18, 02:06:05,VALID,1003.37,VALID,0.5,INVALID,163.647,VALID,0,VALID,24.0345,VALID,235,VALID,0.641406,
2011-01-18, 02:07:05,VALID,1003.36,VALID,0,INVALID,163.731,VALID,0,VALID,23.8769,VALID,220,VALID,0.630078,
2011-01-18, 02:08:05,VALID,1003.33,VALID,0,INVALID,163.723,VALID,0,VALID,23.7601,VALID,234,VALID,0.860547,
2011-01-18, 02:09:05,VALID,1003.32,VALID,0.5,INVALID,163.723,VALID,0,VALID,23.6823,VALID,229,VALID,1.02891,
2011-01-18, 02:10:05,VALID,1003.29,VALID,0,INVALID,163.746,VALID,0.100563,VALID,23.6239,VALID,249,VALID,0.720703,
2011-01-18, 02:11:05,VALID,1003.27,VALID,0,INVALID,163.708,VALID,0,VALID,23.6044,VALID,264,VALID,0.671875,
2011-01-18, 02:12:05,VALID,1003.25,VALID,0,INVALID,163.731,VALID,0,VALID,23.585,VALID,283,VALID,0.753906,
2011-01-18, 02:13:05,VALID,1003.26,VALID,0,INVALID,163.746,VALID,0,VALID,23.5655,VALID,313,VALID,0.876562,
2011-01-18, 02:14:05,VALID,1003.29,VALID,0,INVALID,163.723,VALID,0.100563,VALID,23.585,VALID,302,VALID,1.15508,
2011-01-18, 02:15:05,VALID,1003.32,VALID,0,INVALID,163.762,VALID,0,VALID,23.6044,VALID,302,VALID,0.946484,
2011-01-18, 02:16:05,VALID,1003.34,VALID,0.5,INVALID,163.739,VALID,0,VALID,23.585,VALID,226,VALID,0.505469,
2011-01-18, 02:17:05,VALID,1003.35,VALID,0,INVALID,163.739,VALID,0,VALID,23.6239,VALID,241,VALID,0.501172,
2011-01-18, 02:18:05,VALID,1003.35,VALID,0,INVALID,163.731,VALID,0.100563,VALID,23.6628,VALID,222,VALID,0.542188,
2011-01-18, 02:19:05,VALID,1003.36,VALID,0,INVALID,163.746,VALID,0,VALID,23.6823,VALID,205,VALID,0.513672,
2011-01-18, 02:20:05,VALID,1003.36,VALID,0,INVALID,163.746,VALID,0.100563,VALID,23.6823,VALID,219,VALID,1.08906,
2011-01-18, 02:21:05,VALID,1003.33,VALID,0,INVALID,163.716,VALID,0,VALID,23.7425,VALID,238,VALID,0.641016,
2011-01-18, 02:22:05,VALID,1003.31,VALID,0,INVALID,163.769,VALID,0.100563,VALID,23.7212,VALID,239,VALID,0.137891,
2011-01-18, 02:23:05,VALID,1003.29,VALID,0,INVALID,163.723,VALID,0.100563,VALID,23.7389,VALID,255,VALID,0.253906,
2011-01-18, 02:24:05,VALID,1003.27,VALID,0,INVALID,163.716,VALID,0,VALID,23.7601,VALID,283,VALID,0.442187,
2011-01-18, 02:25:05,VALID,1003.27,VALID,0.5,INVALID,163.731,VALID,0,VALID,23.7796,VALID,233,VALID,0.384375,
2011-01-18, 02:26:05,VALID,1003.25,VALID,0,INVALID,163.723,VALID,0,VALID,23.8185,VALID,204,VALID,0.304297,
2011-01-18, 02:27:05,VALID,1003.25,VALID,0,INVALID,163.716,VALID,0.100563,VALID,23.8575,VALID,200,VALID,0.457812,
2011-01-18, 02:28:05,VALID,1003.28,VALID,0,INVALID,163.693,VALID,0,VALID,23.8575,VALID,111,VALID,0.455078,
2011-01-18, 02:29:05,VALID,1003.25,VALID,0,INVALID,163.716,VALID,0,VALID,23.8575,VALID,206,VALID,0.732813,
2011-01-18, 02:30:05,VALID,1003.23,VALID,0.5,INVALID,163.708,VALID,0,VALID,23.8575,VALID,198,VALID,0.394531,
2011-01-18, 02:31:05,VALID,1003.23,VALID,0,INVALID,163.731,VALID,0,VALID,23.8575,VALID,250,VALID,1.34375,
2011-01-18, 02:32:05,VALID,1003.23,VALID,0,INVALID,163.716,VALID,0.100563,VALID,23.8769,VALID,259,VALID,0.546484,
2011-01-18, 02:33:05,VALID,1003.24,VALID,0,INVALID,163.731,VALID,0,VALID,23.8769,VALID,238,VALID,0.591016,
2011-01-18, 02:34:05,VALID,1003.22,VALID,0,INVALID,163.716,VALID,0.100563,VALID,23.838,VALID,214,VALID,1.42539,
2011-01-18, 02:35:05,VALID,1003.24,VALID,0,INVALID,163.701,VALID,0,VALID,23.8593,VALID,236,VALID,0.520312,
2011-01-18, 02:36:05,VALID,1003.18,VALID,0.5,INVALID,163.731,VALID,0,VALID,23.838,VALID,250,VALID,1.24141,
2011-01-18, 02:37:05,VALID,1003.23,VALID,0,INVALID,163.731,VALID,0.100563,VALID,23.8398,VALID,263,VALID,0.379297,
2011-01-18, 02:38:05,VALID,1003.23,VALID,0.5,INVALID,163.746,VALID,0.100563,VALID,23.8185,VALID,293,VALID,0.689453,
2011-01-18, 02:39:05,VALID,1003.2,VALID,0,INVALID,163.739,VALID,0,VALID,23.8593,VALID,271,VALID,0.766797,
2011-01-18, 02:40:05,VALID,1003.18,VALID,0,INVALID,163.685,VALID,0.100563,VALID,23.8769,VALID,241,VALID,0.600391,
2011-01-18, 02:41:05,VALID,1003.15,VALID,0.5,INVALID,163.701,VALID,0.100563,VALID,23.8964,VALID,249,VALID,1.08906,
2011-01-18, 02:42:05,VALID,1003.15,VALID,0,INVALID,163.693,VALID,0,VALID,23.8769,VALID,239,VALID,1.07813,
2011-01-18, 02:43:05,VALID,1003.19,VALID,0,INVALID,163.716,VALID,0.100563,VALID,23.9159,VALID,175,VALID,0.421875,
2011-01-18, 02:44:05,VALID,1003.17,VALID,0,INVALID,163.731,VALID,0.100563,VALID,23.9159,VALID,292,VALID,0.972656,
2011-01-18, 02:45:05,VALID,1003.18,VALID,0,INVALID,163.685,VALID,0,VALID,23.9177,VALID,212,VALID,1.20391,
2011-01-18, 02:46:05,VALID,1003.22,VALID,0,INVALID,163.693,VALID,0,VALID,23.8769,VALID,230,VALID,0.399609,
2011-01-18, 02:47:05,VALID,1003.2,VALID,0,INVALID,163.701,VALID,0,VALID,23.8769,VALID,264,VALID,1.22734,
2011-01-18, 02:48:05,VALID,1003.21,VALID,0.5,INVALID,163.731,VALID,0,VALID,23.8556,VALID,254,VALID,1.11719,
2011-01-18, 02:49:05,VALID,1003.25,VALID,0,INVALID,163.708,VALID,0,VALID,23.8575,VALID,264,VALID,0.584375,
2011-01-18, 02:50:05,VALID,1003.24,VALID,0,INVALID,163.716,VALID,0.100563,VALID,23.8575,VALID,355,VALID,0.420703,
2011-01-18, 02:51:05,VALID,1003.22,VALID,0,INVALID,163.708,VALID,0.100563,VALID,23.8575,VALID,246,VALID,1.24219,
2011-01-18, 02:52:05,VALID,1003.24,VALID,0,INVALID,163.731,VALID,0.100563,VALID,23.7973,VALID,246,VALID,0.916797,
2011-01-18, 02:53:05,VALID,1003.24,VALID,0,INVALID,163.693,VALID,0.100563,VALID,23.7991,VALID,243,VALID,1.45742,
2011-01-18, 02:54:05,VALID,1003.24,VALID,0.5,INVALID,163.731,VALID,0,VALID,23.7796,VALID,242,VALID,1.30859,
2011-01-18, 02:55:05,VALID,1003.25,VALID,0,INVALID,163.731,VALID,0,VALID,23.7619,VALID,255,VALID,0.614453,
2011-01-18, 02:56:05,VALID,1003.31,VALID,0,INVALID,163.739,VALID,0,VALID,23.7814,VALID,238,VALID,0.348828,
2011-01-18, 02:57:05,VALID,1003.31,VALID,0,INVALID,163.731,VALID,0,VALID,23.7796,VALID,264,VALID,0.80625,
2011-01-18, 02:58:05,VALID,1003.32,VALID,0,INVALID,163.723,VALID,0,VALID,23.7814,VALID,237,VALID,0.718359,
2011-01-18, 02:59:05,VALID,1003.29,VALID,0,INVALID,163.723,VALID,0,VALID,23.7619,VALID,276,VALID,1.01836,
2011-01-18, 03:00:05,VALID,1003.31,VALID,0,INVALID,163.731,VALID,0,VALID,23.7212,VALID,244,VALID,1.875,
2011-01-18, 03:01:05,VALID,1003.32,VALID,0.5,INVALID,163.716,VALID,0,VALID,23.7017,VALID,301,VALID,0.589844,
2011-01-18, 03:02:05,VALID,1003.3,VALID,0,INVALID,163.739,VALID,0,VALID,23.7425,VALID,181,VALID,0.829297,
2011-01-18, 03:03:05,VALID,1003.34,VALID,0,INVALID,163.723,VALID,0,VALID,23.723,VALID,240,VALID,0.347656,
2011-01-18, 03:04:05,VALID,1003.31,VALID,0,INVALID,163.739,VALID,0,VALID,23.7017,VALID,231,VALID,0.688281,
2011-01-18, 03:05:05,VALID,1003.26,VALID,0,INVALID,163.731,VALID,0,VALID,23.723,VALID,248,VALID,0.511328,
2011-01-18, 03:06:05,VALID,1003.27,VALID,0,INVALID,163.723,VALID,0,VALID,23.723,VALID,337,VALID,0.965234,
2011-01-18, 03:07:05,VALID,1003.26,VALID,0,INVALID,163.731,VALID,0,VALID,23.7017,VALID,297,VALID,0.989844,
2011-01-18, 03:08:05,VALID,1003.27,VALID,0.5,INVALID,163.723,VALID,0,VALID,23.7212,VALID,253,VALID,0.182812,
2011-01-18, 03:09:05,VALID,1003.28,VALID,0,INVALID,163.723,VALID,0,VALID,23.7212,VALID,271,VALID,0.726563,
2011-01-18, 03:10:05,VALID,1003.25,VALID,0,INVALID,163.731,VALID,0,VALID,23.7,VALID,306,VALID,0.358203,
2011-01-18, 03:11:05,VALID,1003.27,VALID,0,INVALID,163.746,VALID,0.100563,VALID,23.7212,VALID,288,VALID,0.933203,
2011-01-18, 03:12:05,VALID,1003.24,VALID,0,INVALID,163.723,VALID,0,VALID,23.7212,VALID,319,VALID,0.592188,
2011-01-18, 03:13:05,VALID,1003.25,VALID,0,INVALID,163.708,VALID,0.100563,VALID,23.7212,VALID,287,VALID,0.708594,
2011-01-18, 03:14:05,VALID,1003.23,VALID,0,INVALID,163.731,VALID,0.100563,VALID,23.7194,VALID,262,VALID,0.383594,
2011-01-18, 03:15:05,VALID,1003.26,VALID,0,INVALID,163.754,VALID,0.100563,VALID,23.7389,VALID,260,VALID,0.992188,
2011-01-18, 03:16:05,VALID,1003.27,VALID,0,INVALID,163.739,VALID,0,VALID,23.7407,VALID,264,VALID,1.10859,
2011-01-18, 03:17:05,VALID,1003.28,VALID,0,INVALID,163.708,VALID,0,VALID,23.7407,VALID,279,VALID,1.39219,
2011-01-18, 03:18:05,VALID,1003.31,VALID,0.5,INVALID,163.739,VALID,0.100563,VALID,23.7194,VALID,271,VALID,0.802734,
2011-01-18, 03:19:05,VALID,1003.31,VALID,0,INVALID,163.716,VALID,0,VALID,23.7194,VALID,307,VALID,0.737109,
2011-01-18, 03:20:05,VALID,1003.38,VALID,0,INVALID,163.708,VALID,0,VALID,23.7035,VALID,256,VALID,0.632422,
2011-01-18, 03:21:05,VALID,1003.36,VALID,0.5,INVALID,163.746,VALID,0,VALID,23.6026,VALID,212,VALID,1.42383,
2011-01-18, 03:22:05,VALID,1003.42,VALID,0,INVALID,163.723,VALID,0,VALID,23.5655,VALID,252,VALID,0.853516,
2011-01-18, 03:23:05,VALID,1003.41,VALID,0,INVALID,163.723,VALID,0,VALID,23.546,VALID,238,VALID,0.656641,
2011-01-18, 03:24:05,VALID,1003.44,VALID,0,INVALID,163.746,VALID,0,VALID,23.5266,VALID,288,VALID,1.23984,
2011-01-18, 03:25:05,VALID,1003.47,VALID,0.5,INVALID,163.739,VALID,0,VALID,23.5089,VALID,239,VALID,1.66602,
2011-01-18, 03:26:05,VALID,1003.5,VALID,0,INVALID,163.746,VALID,0,VALID,23.4894,VALID,215,VALID,1.31445,
2011-01-18, 03:27:05,VALID,1003.53,VALID,0.5,INVALID,163.723,VALID,0,VALID,23.47,VALID,248,VALID,1.61484,
2011-01-18, 03:28:05,VALID,1003.55,VALID,0,INVALID,163.754,VALID,0,VALID,23.4682,VALID,225,VALID,1.26367,
2011-01-18, 03:29:05,VALID,1003.52,VALID,0.5,INVALID,163.716,VALID,0,VALID,23.4293,VALID,260,VALID,1.23125,
2011-01-18, 03:30:05,VALID,1003.55,VALID,0.5,INVALID,163.746,VALID,0,VALID,23.4505,VALID,239,VALID,0.882813,
2011-01-18, 03:31:05,VALID,1003.53,VALID,0,INVALID,163.731,VALID,0,VALID,23.4311,VALID,307,VALID,1.07695,
2011-01-18, 03:32:05,VALID,1003.56,VALID,0.5,INVALID,163.731,VALID,0,VALID,23.4116,VALID,273,VALID,1.09102,
2011-01-18, 03:33:05,VALID,1003.56,VALID,0.5,INVALID,163.754,VALID,0,VALID,23.3921,VALID,288,VALID,1.65352,
2011-01-18, 03:34:05,VALID,1003.58,VALID,0.5,INVALID,163.769,VALID,0,VALID,23.332,VALID,286,VALID,1.25352,
2011-01-18, 03:35:05,VALID,1003.6,VALID,0.5,INVALID,163.777,VALID,0,VALID,23.3337,VALID,303,VALID,0.885938,
2011-01-18, 03:36:05,VALID,1003.61,VALID,0,INVALID,163.746,VALID,0,VALID,23.2736,VALID,255,VALID,0.763281,
2011-01-18, 03:37:05,VALID,1003.59,VALID,0.5,INVALID,163.754,VALID,0,VALID,23.2347,VALID,68,VALID,0.414063,
2011-01-18, 03:38:05,VALID,1003.6,VALID,0.5,INVALID,163.762,VALID,0,VALID,23.2152,VALID,259,VALID,2.09375,
2011-01-18, 03:39:05,VALID,1003.64,VALID,0.5,INVALID,163.792,VALID,0,VALID,23.1975,VALID,284,VALID,0.886328,
2011-01-18, 03:40:05,VALID,1003.65,VALID,1,INVALID,163.762,VALID,0,VALID,23.1586,VALID,303,VALID,2.32852,